Time,TemperatureF,DewpointF,PressureIn,WindDirection,WindDirectionDegrees,WindSpeedMPH,WindSpeedGustMPH,Humidity,HourlyPrecipIn,Conditions,Clouds,dailyrainin,SoftwareType,DateUTC
2013-04-07 00:00:00,70.6,73.5,19.45,East,90,8.3,10.3,72,0.00,,,0.00,,2013-04-07 04:00:00,
2013-04-07 00:01:00,70.6,72.9,19.45,East,90,4.7,10.3,72,0.00,,,0.00,,2013-04-07 04:01:00,
2013-04-07 00:06:00,70.6,73.6,19.45,East,90,3.4,7.8,72,0.00,,,0.00,,2013-04-07 04:06:00,
2013-04-07 00:12:00,70.6,73.5,19.45,East,90,6.9,6.9,71,0.00,,,0.00,,2013-04-07 04:12:00,
2013-04-07 00:17:00,70.6,73.6,19.45,East,90,6.7,10.5,71,0.00,,,0.00,,2013-04-07 04:17:00,
2013-04-07 00:22:00,70.6,73.5,19.45,East,90,6.7,7.4,70,0.00,,,0.00,,2013-04-07 04:22:00,
2013-04-07 00:27:00,70.6,73.5,19.45,ESE,112,6.5,11.2,70,0.00,,,0.00,,2013-04-07 04:27:00,
2013-04-07 00:32:00,70.5,73.4,19.44,ENE,67,8.7,18.1,70,0.00,,,0.00,,2013-04-07 04:32:00,
2013-04-07 00:37:00,70.6,73.4,19.44,East,90,12.5,12.5,71,0.00,,,0.00,,2013-04-07 04:37:00,
2013-04-07 00:42:00,70.6,73.5,19.44,East,90,8.7,17.7,71,0.00,,,0.00,,2013-04-07 04:42:00,
2013-04-07 00:47:00,70.6,73.5,19.44,East,90,5.8,10.7,71,0.00,,,0.00,,2013-04-07 04:47:00,
2013-04-07 00:52:00,70.6,73.4,19.44,ENE,67,9.8,11.6,71,0.00,,,0.00,,2013-04-07 04:52:00,
2013-04-07 00:57:00,70.5,73.4,19.44,East,90,9.2,12.8,71,0.00,,,0.00,,2013-04-07 04:57:00,
2013-04-07 01:02:00,70.5,73.4,19.44,NE,45,8.5,15.2,70,0.00,,,0.00,,2013-04-07 05:02:00,
2013-04-07 01:07:00,70.5,73.5,19.45,East,90,8.9,8.9,70,0.00,,,0.00,,2013-04-07 05:07:00,
2013-04-07 01:12:00,70.4,73.5,19.45,ENE,67,8.5,10.7,70,0.00,,,0.00,,2013-04-07 05:12:00,
2013-04-07 01:17:00,70.3,73.4,19.44,ENE,67,6.3,13.0,70,0.00,,,0.00,,2013-04-07 05:17:00,
2013-04-07 01:22:00,70.3,73.4,19.45,NE,45,8.7,10.3,71,0.00,,,0.00,,2013-04-07 05:22:00,
2013-04-07 01:27:00,70.3,73.4,19.44,NE,45,6.7,10.7,71,0.00,,,0.00,,2013-04-07 05:27:00,
2013-04-07 01:32:00,70.2,73.3,19.44,ENE,67,8.5,11.0,71,0.00,,,0.00,,2013-04-07 05:32:00,
2013-04-07 01:37:00,70.2,73.4,19.44,East,90,5.4,12.3,71,0.00,,,0.00,,2013-04-07 05:37:00,
2013-04-07 01:42:00,70.2,73.3,19.45,East,90,12.8,13.6,70,0.00,,,0.00,,2013-04-07 05:42:00,
2013-04-07 01:47:00,70.2,73.3,19.44,ENE,67,5.8,12.1,70,0.00,,,0.00,,2013-04-07 05:47:00,
2013-04-07 01:52:00,70.1,73.3,19.44,ESE,112,7.4,11.4,71,0.00,,,0.00,,2013-04-07 05:52:00,
2013-04-07 01:58:00,70.1,73.3,19.44,East,90,6.9,11.4,70,0.00,,,0.00,,2013-04-07 05:58:00,
2013-04-07 02:03:00,70.1,73.3,19.45,ENE,67,9.2,9.2,70,0.00,,,0.00,,2013-04-07 06:03:00,
2013-04-07 02:08:00,70.0,73.3,19.45,East,90,9.4,9.4,70,0.00,,,0.00,,2013-04-07 06:08:00,
2013-04-07 02:13:00,70.0,73.3,19.45,East,90,7.4,13.6,70,0.00,,,0.00,,2013-04-07 06:13:00,
2013-04-07 02:18:00,70.0,73.3,19.45,ESE,112,5.1,11.0,70,0.00,,,0.00,,2013-04-07 06:18:00,
2013-04-07 02:23:00,70.0,73.3,19.45,ENE,67,4.7,8.3,70,0.00,,,0.00,,2013-04-07 06:23:00,
2013-04-07 02:28:00,70.0,73.3,19.45,East,90,6.3,8.3,70,0.00,,,0.00,,2013-04-07 06:28:00,
2013-04-07 02:33:00,69.9,73.4,19.45,East,90,5.8,11.0,70,0.00,,,0.00,,2013-04-07 06:33:00,
2013-04-07 02:38:00,69.9,73.3,19.45,ENE,67,5.1,8.1,70,0.00,,,0.00,,2013-04-07 06:38:00,
2013-04-07 02:43:00,69.8,73.3,19.45,East,90,4.7,11.4,70,0.00,,,0.00,,2013-04-07 06:43:00,
2013-04-07 02:48:00,69.9,73.3,19.45,East,90,6.7,8.9,71,0.00,,,0.00,,2013-04-07 06:48:00,
2013-04-07 02:53:00,69.8,73.3,19.45,ESE,112,4.7,13.9,70,0.00,,,0.00,,2013-04-07 06:53:00,
2013-04-07 02:58:00,69.9,73.2,19.45,East,90,5.8,9.2,71,0.00,,,0.00,,2013-04-07 06:58:00,
2013-04-07 03:03:00,69.8,73.2,19.45,NE,45,8.5,9.2,71,0.00,,,0.00,,2013-04-07 07:03:00,
2013-04-07 03:08:00,69.9,73.3,19.45,East,90,10.1,10.1,71,0.00,,,0.00,,2013-04-07 07:08:00,
2013-04-07 03:13:00,69.8,73.3,19.45,East,90,6.9,9.2,71,0.00,,,0.00,,2013-04-07 07:13:00,
2013-04-07 03:18:00,69.9,73.2,19.45,NE,45,4.0,10.5,71,0.00,,,0.00,,2013-04-07 07:18:00,
2013-04-07 03:23:00,69.9,73.3,19.45,East,90,10.5,10.5,71,0.00,,,0.00,,2013-04-07 07:23:00,
2013-04-07 03:28:00,69.9,73.2,19.45,East,90,5.8,7.4,71,0.00,,,0.00,,2013-04-07 07:28:00,
2013-04-07 03:33:00,69.9,73.3,19.44,East,90,8.7,13.0,71,0.00,,,0.00,,2013-04-07 07:33:00,
2013-04-07 03:38:00,69.8,73.2,19.44,ENE,67,7.8,10.1,71,0.00,,,0.00,,2013-04-07 07:38:00,
2013-04-07 03:43:00,69.8,73.2,19.45,ENE,67,7.4,8.9,70,0.00,,,0.00,,2013-04-07 07:43:00,
2013-04-07 03:48:00,69.8,73.3,19.45,ENE,67,5.6,9.2,70,0.00,,,0.00,,2013-04-07 07:48:00,
2013-04-07 03:53:00,69.7,73.2,19.45,East,90,4.9,9.6,70,0.00,,,0.00,,2013-04-07 07:53:00,
2013-04-07 03:58:00,69.7,73.3,19.45,East,90,10.1,11.6,70,0.00,,,0.00,,2013-04-07 07:58:00,
2013-04-07 04:03:00,69.6,73.2,19.46,East,90,3.8,8.5,70,0.00,,,0.00,,2013-04-07 08:03:00,
2013-04-07 04:08:00,69.7,73.2,19.46,ENE,67,1.1,1.1,70,0.00,,,0.00,,2013-04-07 08:08:00,
2013-04-07 04:13:00,69.6,73.3,19.45,East,90,5.1,9.4,70,0.00,,,0.00,,2013-04-07 08:13:00,
2013-04-07 04:18:00,69.6,73.3,19.45,ENE,67,3.4,6.3,70,0.00,,,0.00,,2013-04-07 08:18:00,
2013-04-07 04:23:00,69.6,73.2,19.46,ENE,67,4.9,7.4,70,0.00,,,0.00,,2013-04-07 08:23:00,
2013-04-07 04:28:00,69.5,73.3,19.45,East,90,7.4,10.7,70,0.00,,,0.00,,2013-04-07 08:28:00,
2013-04-07 04:33:00,69.5,73.3,19.45,East,90,8.1,8.1,70,0.00,,,0.00,,2013-04-07 08:33:00,
2013-04-07 04:38:00,69.5,73.3,19.46,East,90,4.9,8.1,70,0.00,,,0.00,,2013-04-07 08:38:00,
2013-04-07 04:43:00,69.5,73.2,19.46,ENE,67,3.6,9.4,70,0.00,,,0.00,,2013-04-07 08:43:00,
2013-04-07 04:48:00,69.3,73.1,19.46,East,90,3.1,7.8,70,0.00,,,0.00,,2013-04-07 08:48:00,
2013-04-07 04:53:00,69.3,73.2,19.46,East,90,5.1,6.9,70,0.00,,,0.00,,2013-04-07 08:53:00,
2013-04-07 04:58:00,69.2,73.2,19.46,ENE,67,2.7,7.2,70,0.00,,,0.00,,2013-04-07 08:58:00,
2013-04-07 05:04:00,69.2,73.1,19.46,East,90,2.7,8.9,71,0.00,,,0.00,,2013-04-07 09:04:00,
2013-04-07 05:09:00,69.2,73.2,19.46,NE,45,5.4,5.4,71,0.00,,,0.00,,2013-04-07 09:09:00,
2013-04-07 05:14:00,69.2,73.2,19.46,ENE,67,4.7,6.9,71,0.00,,,0.00,,2013-04-07 09:14:00,
2013-04-07 05:19:00,69.2,73.2,19.46,East,90,3.4,5.6,71,0.00,,,0.00,,2013-04-07 09:19:00,
2013-04-07 05:24:00,69.2,73.2,19.46,East,90,3.6,6.5,72,0.00,,,0.00,,2013-04-07 09:24:00,
2013-04-07 05:29:00,69.2,73.2,19.47,East,90,3.6,4.5,72,0.00,,,0.00,,2013-04-07 09:29:00,
2013-04-07 05:34:00,69.2,73.2,19.46,ESE,112,4.7,8.9,72,0.00,,,0.00,,2013-04-07 09:34:00,
2013-04-07 05:39:00,69.2,73.2,19.46,East,90,9.8,10.1,71,0.00,,,0.00,,2013-04-07 09:39:00,
2013-04-07 05:45:00,69.3,73.1,19.46,ENE,67,4.5,7.8,71,0.00,,,0.00,,2013-04-07 09:45:00,
2013-04-07 05:50:00,69.2,73.1,19.47,NE,45,4.9,6.5,71,0.00,,,0.00,,2013-04-07 09:50:00,
2013-04-07 05:55:00,69.2,73.1,19.47,East,90,6.0,8.5,71,0.00,,,0.00,,2013-04-07 09:55:00,
2013-04-07 06:00:00,69.1,73.1,19.46,ESE,112,2.9,4.7,70,0.00,,,0.00,,2013-04-07 10:00:00,
2013-04-07 06:05:00,69.2,73.2,19.47,East,90,5.4,7.8,71,0.00,,,0.00,,2013-04-07 10:05:00,
2013-04-07 06:10:00,69.1,73.2,19.47,East,90,4.7,8.7,71,0.00,,,0.00,,2013-04-07 10:10:00,
2013-04-07 06:15:00,69.0,73.1,19.47,East,90,7.2,9.4,70,0.00,,,0.00,,2013-04-07 10:15:00,
2013-04-07 06:20:00,69.1,73.1,19.47,NE,45,5.6,6.0,69,0.00,,,0.00,,2013-04-07 10:20:00,
2013-04-07 06:25:00,69.2,73.1,19.47,ENE,67,7.2,8.1,69,0.00,,,0.00,,2013-04-07 10:25:00,
2013-04-07 06:30:00,69.2,73.1,19.47,East,90,4.9,6.7,69,0.00,,,0.00,,2013-04-07 10:30:00,
2013-04-07 06:35:00,69.2,73.1,19.47,SE,135,3.4,10.5,69,0.00,,,0.00,,2013-04-07 10:35:00,
2013-04-07 06:40:00,69.2,73.0,19.47,East,90,4.3,8.5,69,0.00,,,0.00,,2013-04-07 10:40:00,
2013-04-07 06:45:00,69.2,73.0,19.47,East,90,6.9,6.9,69,0.00,,,0.00,,2013-04-07 10:45:00,
2013-04-07 06:50:00,69.2,73.0,19.47,East,90,5.8,8.5,69,0.00,,,0.00,,2013-04-07 10:50:00,
2013-04-07 06:55:00,69.2,73.0,19.48,ESE,112,5.1,6.9,69,0.00,,,0.00,,2013-04-07 10:55:00,
2013-04-07 07:00:00,69.2,73.1,19.48,ENE,67,5.6,6.5,69,0.00,,,0.00,,2013-04-07 11:00:00,
2013-04-07 07:05:00,69.3,73.0,19.48,ENE,67,0.0,3.6,69,0.00,,,0.00,,2013-04-07 11:05:00,
2013-04-07 07:10:00,69.2,73.0,19.48,ENE,67,2.7,4.0,69,0.00,,,0.00,,2013-04-07 11:10:00,
2013-04-07 07:15:00,69.2,72.9,19.48,ENE,67,3.8,3.8,70,0.00,,,0.00,,2013-04-07 11:15:00,
2013-04-07 07:20:00,69.2,73.0,19.48,ENE,67,1.6,4.3,70,0.00,,,0.00,,2013-04-07 11:20:00,
2013-04-07 07:25:00,69.2,73.1,19.48,ENE,67,0.0,0.0,71,0.00,,,0.00,,2013-04-07 11:25:00,
2013-04-07 07:30:00,69.3,73.1,19.48,NE,45,1.8,2.9,71,0.00,,,0.00,,2013-04-07 11:30:00,
2013-04-07 07:35:00,69.2,73.0,19.48,NE,45,1.3,2.7,71,0.00,,,0.00,,2013-04-07 11:35:00,
2013-04-07 07:40:00,69.3,73.0,19.48,NE,45,0.9,3.6,71,0.00,,,0.00,,2013-04-07 11:40:00,
2013-04-07 07:45:00,69.7,73.1,19.48,NE,45,4.9,4.9,72,0.00,,,0.00,,2013-04-07 11:45:00,
2013-04-07 07:50:00,70.1,73.0,19.48,NE,45,3.1,3.8,71,0.00,,,0.00,,2013-04-07 11:50:00,
2013-04-07 07:55:00,71.0,73.2,19.48,NNE,22,0.9,4.7,71,0.00,,,0.00,,2013-04-07 11:55:00,
2013-04-07 08:00:00,71.8,73.2,19.47,NNE,22,2.9,3.1,70,0.00,,,0.00,,2013-04-07 12:00:00,
2013-04-07 08:05:00,72.8,73.1,19.46,ENE,67,0.0,1.3,69,0.00,,,0.00,,2013-04-07 12:05:00,
2013-04-07 08:10:00,72.7,73.1,19.46,ENE,67,1.8,5.8,67,0.00,,,0.00,,2013-04-07 12:10:00,
2013-04-07 08:15:00,72.1,73.1,19.46,ESE,112,2.9,4.3,67,0.00,,,0.00,,2013-04-07 12:15:00,
2013-04-07 08:20:00,71.7,72.9,19.45,ENE,67,2.9,6.3,67,0.00,,,0.00,,2013-04-07 12:20:00,
2013-04-07 08:26:00,71.5,72.8,19.46,ESE,112,2.9,3.6,68,0.00,,,0.00,,2013-04-07 12:26:00,
2013-04-07 08:31:00,71.4,73.0,19.45,East,90,3.1,7.6,68,0.00,,,0.00,,2013-04-07 12:31:00,
2013-04-07 08:36:00,71.5,73.2,19.45,East,90,4.9,5.1,69,0.00,,,0.00,,2013-04-07 12:36:00,
2013-04-07 08:41:00,72.2,73.4,19.44,East,90,3.8,8.5,68,0.00,,,0.00,,2013-04-07 12:41:00,
2013-04-07 08:46:00,73.1,72.9,19.42,ENE,67,4.9,6.9,67,0.00,,,0.00,,2013-04-07 12:46:00,
2013-04-07 08:51:00,74.0,73.0,19.40,East,90,4.7,12.1,65,0.00,,,0.00,,2013-04-07 12:51:00,
2013-04-07 08:56:00,74.3,73.0,19.38,ESE,112,9.2,15.7,63,0.00,,,0.00,,2013-04-07 12:56:00,
2013-04-07 09:01:00,74.2,73.2,19.37,ESE,112,13.9,17.9,61,0.00,,,0.00,,2013-04-07 13:01:00,
2013-04-07 09:06:00,74.3,73.2,19.38,ENE,67,14.1,14.1,61,0.00,,,0.00,,2013-04-07 13:06:00,
2013-04-07 09:11:00,74.3,73.7,19.37,East,90,10.7,17.0,61,0.00,,,0.00,,2013-04-07 13:11:00,
2013-04-07 09:16:00,74.4,73.2,19.37,East,90,11.4,16.3,60,0.00,,,0.00,,2013-04-07 13:16:00,
2013-04-07 09:21:00,74.1,73.4,19.37,East,90,8.9,19.2,62,0.00,,,0.00,,2013-04-07 13:21:00,
2013-04-07 09:27:00,73.6,73.2,19.38,ESE,112,12.1,13.9,62,0.00,,,0.00,,2013-04-07 13:27:00,
2013-04-07 09:32:00,73.5,73.1,19.39,East,90,8.3,8.3,63,0.00,,,0.00,,2013-04-07 13:32:00,
2013-04-07 09:37:00,73.4,73.1,19.40,East,90,7.8,10.1,65,0.00,,,0.00,,2013-04-07 13:37:00,
2013-04-07 09:42:00,73.2,73.1,19.40,East,90,9.6,9.8,64,0.00,,,0.00,,2013-04-07 13:42:00,
2013-04-07 09:47:00,73.2,73.1,19.40,ESE,112,7.8,11.2,65,0.00,,,0.00,,2013-04-07 13:47:00,
2013-04-07 09:52:00,73.2,73.5,19.40,SE,135,3.8,6.9,64,0.00,,,0.00,,2013-04-07 13:52:00,
2013-04-07 09:57:00,73.6,73.2,19.39,East,90,5.8,9.4,64,0.00,,,0.00,,2013-04-07 13:57:00,
2013-04-07 10:02:00,73.9,73.2,19.39,ENE,67,7.6,8.7,64,0.00,,,0.00,,2013-04-07 14:02:00,
2013-04-07 10:07:00,74.3,73.5,19.37,East,90,8.9,12.1,63,0.00,,,0.00,,2013-04-07 14:07:00,
2013-04-07 10:12:00,74.2,73.2,19.38,East,90,9.2,9.4,64,0.00,,,0.00,,2013-04-07 14:12:00,
2013-04-07 10:17:00,74.1,73.4,19.38,ENE,67,8.7,18.3,63,0.00,,,0.00,,2013-04-07 14:17:00,
2013-04-07 10:22:00,74.0,73.4,19.39,ENE,67,11.2,13.4,64,0.00,,,0.00,,2013-04-07 14:22:00,
2013-04-07 10:27:00,73.7,73.3,19.39,East,90,10.1,14.5,62,0.00,,,0.00,,2013-04-07 14:27:00,
2013-04-07 10:32:00,73.5,73.5,19.39,ESE,112,6.3,9.2,63,0.00,,,0.00,,2013-04-07 14:32:00,
2013-04-07 10:37:00,73.6,73.4,19.39,East,90,10.7,15.0,64,0.00,,,0.00,,2013-04-07 14:37:00,
2013-04-07 10:42:00,73.9,73.4,19.39,East,90,10.5,11.9,62,0.00,,,0.00,,2013-04-07 14:42:00,
2013-04-07 10:48:00,73.8,73.4,19.38,East,90,12.8,16.1,61,0.00,,,0.00,,2013-04-07 14:48:00,
2013-04-07 10:53:00,74.0,73.5,19.38,ENE,67,11.6,14.1,62,0.00,,,0.00,,2013-04-07 14:53:00,
2013-04-07 10:58:00,74.0,73.5,19.38,NE,45,10.1,19.9,61,0.00,,,0.00,,2013-04-07 14:58:00,
2013-04-07 11:03:00,74.2,73.6,19.38,East,90,14.8,16.6,59,0.00,,,0.00,,2013-04-07 15:03:00,
2013-04-07 11:08:00,74.3,73.8,19.37,ENE,67,8.3,16.8,59,0.00,,,0.00,,2013-04-07 15:08:00,
2013-04-07 11:13:00,74.8,73.7,19.36,East,90,6.9,12.1,60,0.00,,,0.00,,2013-04-07 15:13:00,
2013-04-07 11:18:00,74.9,73.9,19.36,East,90,9.8,14.1,58,0.00,,,0.00,,2013-04-07 15:18:00,
2013-04-07 11:23:00,74.3,74.0,19.37,ESE,112,6.3,11.2,59,0.00,,,0.00,,2013-04-07 15:23:00,
2013-04-07 11:28:00,74.0,73.9,19.38,ENE,67,5.6,14.3,62,0.00,,,0.00,,2013-04-07 15:28:00,
2013-04-07 11:33:00,74.0,73.7,19.38,East,90,10.7,10.7,62,0.00,,,0.00,,2013-04-07 15:33:00,
2013-04-07 11:38:00,74.0,73.7,19.38,ENE,67,5.8,14.1,61,0.00,,,0.00,,2013-04-07 15:38:00,
2013-04-07 11:43:00,73.9,73.8,19.38,East,90,5.4,9.8,61,0.00,,,0.00,,2013-04-07 15:43:00,
2013-04-07 11:48:00,74.1,73.9,19.38,ENE,67,5.4,15.9,59,0.00,,,0.00,,2013-04-07 15:48:00,
2013-04-07 11:53:00,74.2,74.2,19.38,ENE,67,6.9,11.2,59,0.00,,,0.00,,2013-04-07 15:53:00,
2013-04-07 11:58:00,74.2,73.9,19.37,East,90,9.2,15.0,61,0.00,,,0.00,,2013-04-07 15:58:00,
2013-04-07 12:03:00,73.9,74.1,19.37,ESE,112,17.0,17.4,60,0.00,,,0.00,,2013-04-07 16:03:00,
2013-04-07 12:08:00,74.2,74.1,19.37,ENE,67,9.4,14.1,60,0.00,,,0.00,,2013-04-07 16:08:00,
2013-04-07 12:13:00,74.1,74.0,19.37,ESE,112,12.1,12.8,60,0.00,,,0.00,,2013-04-07 16:13:00,
2013-04-07 12:19:00,74.1,74.2,19.37,East,90,11.2,14.8,60,0.00,,,0.00,,2013-04-07 16:19:00,
2013-04-07 12:24:00,73.9,74.2,19.38,ESE,112,11.4,13.6,61,0.00,,,0.00,,2013-04-07 16:24:00,
2013-04-07 12:29:00,74.0,74.0,19.38,ESE,112,8.3,12.5,62,0.00,,,0.00,,2013-04-07 16:29:00,
2013-04-07 12:34:00,74.2,74.0,19.38,ESE,112,10.3,12.3,61,0.00,,,0.00,,2013-04-07 16:34:00,
2013-04-07 12:39:00,74.3,74.2,19.37,NE,45,6.7,15.4,60,0.00,,,0.00,,2013-04-07 16:39:00,
2013-04-07 12:44:00,74.4,74.2,19.36,ESE,112,6.5,11.4,60,0.00,,,0.00,,2013-04-07 16:44:00,
2013-04-07 12:49:00,74.4,74.4,19.35,East,90,13.0,16.6,59,0.00,,,0.00,,2013-04-07 16:49:00,
2013-04-07 12:54:00,74.3,74.8,19.35,ESE,112,16.6,22.8,59,0.00,,,0.00,,2013-04-07 16:54:00,
2013-04-07 12:59:00,74.6,74.7,19.34,East,90,13.4,15.4,60,0.00,,,0.00,,2013-04-07 16:59:00,
2013-04-07 13:04:00,75.0,74.4,19.33,East,90,9.8,17.2,58,0.00,,,0.00,,2013-04-07 17:04:00,
2013-04-07 13:09:00,74.8,74.5,19.34,ESE,112,12.3,16.8,58,0.00,,,0.00,,2013-04-07 17:09:00,
2013-04-07 13:14:00,74.8,74.4,19.34,ESE,112,10.5,10.5,58,0.00,,,0.00,,2013-04-07 17:14:00,
2013-04-07 13:19:00,74.9,74.3,19.33,East,90,13.6,18.3,59,0.00,,,0.00,,2013-04-07 17:19:00,
2013-04-07 13:24:00,74.8,74.5,19.33,ESE,112,16.1,16.1,59,0.00,,,0.00,,2013-04-07 17:24:00,
2013-04-07 13:29:00,74.6,74.5,19.34,East,90,11.0,18.3,58,0.00,,,0.00,,2013-04-07 17:29:00,
2013-04-07 13:34:00,74.6,74.7,19.34,East,90,14.5,14.5,59,0.00,,,0.00,,2013-04-07 17:34:00,
2013-04-07 13:39:00,74.4,74.8,19.35,East,90,11.6,16.3,60,0.00,,,0.00,,2013-04-07 17:39:00,
2013-04-07 13:45:00,74.4,74.9,19.35,ENE,67,15.4,16.1,59,0.00,,,0.00,,2013-04-07 17:45:00,
2013-04-07 13:50:00,74.2,74.8,19.35,East,90,11.9,15.2,60,0.00,,,0.00,,2013-04-07 17:50:00,
2013-04-07 13:55:00,74.5,75.0,19.35,East,90,9.2,14.3,60,0.00,,,0.00,,2013-04-07 17:55:00,
2013-04-07 14:00:00,74.8,75.0,19.34,East,90,7.8,15.2,60,0.00,,,0.00,,2013-04-07 18:00:00,
2013-04-07 14:05:00,75.2,75.2,19.33,ESE,112,8.5,19.5,59,0.00,,,0.00,,2013-04-07 18:05:00,
2013-04-07 14:10:00,74.8,75.2,19.33,ESE,112,17.2,17.2,59,0.00,,,0.00,,2013-04-07 18:10:00,
2013-04-07 14:15:00,74.4,75.4,19.34,ESE,112,22.6,22.6,59,0.00,,,0.00,,2013-04-07 18:15:00,
2013-04-07 14:20:00,74.3,75.0,19.34,East,90,11.6,13.4,60,0.00,,,0.00,,2013-04-07 18:20:00,
2013-04-07 14:25:00,74.6,75.1,19.34,East,90,7.6,12.5,59,0.00,,,0.00,,2013-04-07 18:25:00,
2013-04-07 14:30:00,74.4,75.0,19.34,East,90,8.3,15.9,59,0.00,,,0.00,,2013-04-07 18:30:00,
2013-04-07 14:35:00,74.4,74.7,19.35,ENE,67,5.6,14.5,59,0.00,,,0.00,,2013-04-07 18:35:00,
2013-04-07 14:40:00,74.3,74.6,19.35,East,90,13.2,13.2,60,0.00,,,0.00,,2013-04-07 18:40:00,
2013-04-07 14:45:00,74.5,74.9,19.35,ENE,67,7.4,8.9,60,0.00,,,0.00,,2013-04-07 18:45:00,
2013-04-07 14:50:00,74.3,74.7,19.35,East,90,10.7,16.6,59,0.00,,,0.00,,2013-04-07 18:50:00,
2013-04-07 14:55:00,74.3,75.2,19.35,ESE,112,12.8,12.8,60,0.00,,,0.00,,2013-04-07 18:55:00,
2013-04-07 15:00:00,74.3,75.1,19.34,East,90,12.1,13.9,59,0.00,,,0.00,,2013-04-07 19:00:00,
2013-04-07 15:05:00,74.5,75.2,19.33,East,90,13.0,18.3,60,0.00,,,0.00,,2013-04-07 19:05:00,
2013-04-07 15:10:00,74.7,75.4,19.33,SE,135,10.5,17.0,60,0.00,,,0.00,,2013-04-07 19:10:00,
2013-04-07 15:15:00,74.4,75.4,19.33,East,90,12.3,14.1,59,0.00,,,0.00,,2013-04-07 19:15:00,
2013-04-07 15:20:00,75.0,74.9,19.32,East,90,13.0,15.4,59,0.00,,,0.00,,2013-04-07 19:20:00,
2013-04-07 15:25:00,74.8,75.0,19.32,ENE,67,10.7,13.9,58,0.00,,,0.00,,2013-04-07 19:25:00,
2013-04-07 15:30:00,74.9,75.4,19.32,ESE,112,9.8,13.4,57,0.00,,,0.00,,2013-04-07 19:30:00,
2013-04-07 15:35:00,74.8,75.3,19.32,ESE,112,11.2,11.2,58,0.00,,,0.00,,2013-04-07 19:35:00,
2013-04-07 15:40:00,74.8,75.2,19.33,East,90,6.3,14.8,58,0.00,,,0.00,,2013-04-07 19:40:00,
2013-04-07 15:45:00,74.7,75.5,19.33,ESE,112,8.1,8.1,57,0.00,,,0.00,,2013-04-07 19:45:00,
2013-04-07 15:50:00,74.5,75.7,19.33,East,90,7.4,14.8,57,0.00,,,0.00,,2013-04-07 19:50:00,
2013-04-07 15:55:00,74.7,75.7,19.32,ENE,67,7.8,21.3,58,0.00,,,0.00,,2013-04-07 19:55:00,
2013-04-07 16:00:00,75.0,75.4,19.32,East,90,11.4,11.9,57,0.00,,,0.00,,2013-04-07 20:00:00,
2013-04-07 16:05:00,75.2,75.3,19.31,East,90,13.0,16.3,57,0.00,,,0.00,,2013-04-07 20:05:00,
2013-04-07 16:10:00,75.3,75.6,19.31,East,90,6.0,13.9,55,0.00,,,0.00,,2013-04-07 20:10:00,
2013-04-07 16:15:00,75.1,76.0,19.30,East,90,14.8,16.8,56,0.00,,,0.00,,2013-04-07 20:15:00,
2013-04-07 16:20:00,75.2,76.0,19.31,East,90,8.3,13.4,55,0.00,,,0.00,,2013-04-07 20:20:00,
2013-04-07 16:25:00,75.5,75.4,19.31,East,90,9.2,9.8,56,0.00,,,0.00,,2013-04-07 20:25:00,
2013-04-07 16:30:00,75.4,75.7,19.30,ESE,112,15.2,16.1,53,0.00,,,0.00,,2013-04-07 20:30:00,
2013-04-07 16:35:00,75.3,76.0,19.30,ENE,67,9.6,12.3,55,0.00,,,0.00,,2013-04-07 20:35:00,
2013-04-07 16:40:00,75.6,76.1,19.30,ENE,67,11.9,15.2,54,0.00,,,0.00,,2013-04-07 20:40:00,
2013-04-07 16:45:00,75.7,76.4,19.29,East,90,13.0,17.0,55,0.00,,,0.00,,2013-04-07 20:45:00,
2013-04-07 16:50:00,75.8,75.9,19.30,ESE,112,12.5,12.5,56,0.00,,,0.00,,2013-04-07 20:50:00,
2013-04-07 16:55:00,75.5,76.3,19.30,ESE,112,7.2,13.4,55,0.00,,,0.00,,2013-04-07 20:55:00,
2013-04-07 17:00:00,75.4,76.2,19.30,ESE,112,11.6,11.6,56,0.00,,,0.00,,2013-04-07 21:00:00,
2013-04-07 17:05:00,75.4,76.5,19.30,ENE,67,9.6,11.0,55,0.00,,,0.00,,2013-04-07 21:05:00,
2013-04-07 17:10:00,75.2,76.1,19.30,SE,135,12.5,14.8,54,0.00,,,0.00,,2013-04-07 21:10:00,
2013-04-07 17:15:00,75.2,76.0,19.31,East,90,11.2,14.8,55,0.00,,,0.00,,2013-04-07 21:15:00,
2013-04-07 17:20:00,75.3,76.1,19.31,ENE,67,13.2,16.8,54,0.00,,,0.00,,2013-04-07 21:20:00,
2013-04-07 17:25:00,75.0,76.1,19.32,ESE,112,6.3,13.4,55,0.00,,,0.00,,2013-04-07 21:25:00,
2013-04-07 17:30:00,74.7,76.1,19.33,East,90,4.5,6.7,56,0.00,,,0.00,,2013-04-07 21:30:00,
2013-04-07 17:35:00,74.3,76.3,19.33,ESE,112,11.6,12.8,57,0.00,,,0.00,,2013-04-07 21:35:00,
2013-04-07 17:40:00,74.1,75.9,19.34,East,90,6.9,9.2,57,0.00,,,0.00,,2013-04-07 21:40:00,
2013-04-07 17:45:00,73.9,75.8,19.34,East,90,7.8,11.6,57,0.00,,,0.00,,2013-04-07 21:45:00,
2013-04-07 17:50:00,73.8,76.1,19.34,SE,135,6.7,7.6,58,0.00,,,0.00,,2013-04-07 21:50:00,
2013-04-07 17:55:00,73.7,75.8,19.35,East,90,6.9,13.2,58,0.00,,,0.00,,2013-04-07 21:55:00,
2013-04-07 18:00:00,73.8,75.9,19.35,East,90,11.4,11.9,58,0.00,,,0.00,,2013-04-07 22:00:00,
2013-04-07 18:05:00,73.7,76.2,19.36,East,90,11.6,13.0,57,0.00,,,0.00,,2013-04-07 22:05:00,
2013-04-07 18:11:00,73.7,76.0,19.36,East,90,11.4,11.6,57,0.00,,,0.00,,2013-04-07 22:11:00,
2013-04-07 18:16:00,73.7,76.1,19.36,East,90,9.8,13.9,58,0.00,,,0.00,,2013-04-07 22:16:00,
2013-04-07 18:21:00,73.9,76.1,19.36,ENE,67,8.7,11.6,58,0.00,,,0.00,,2013-04-07 22:21:00,
2013-04-07 18:26:00,74.0,76.0,19.36,East,90,11.6,14.3,56,0.00,,,0.00,,2013-04-07 22:26:00,
2013-04-07 18:31:00,74.0,75.8,19.37,ENE,67,6.3,13.2,57,0.00,,,0.00,,2013-04-07 22:31:00,
2013-04-07 18:37:00,74.1,75.8,19.36,East,90,10.1,14.8,56,0.00,,,0.00,,2013-04-07 22:37:00,
2013-04-07 18:42:00,74.6,75.8,19.36,ESE,112,6.9,13.6,55,0.00,,,0.00,,2013-04-07 22:42:00,
2013-04-07 18:47:00,75.0,75.8,19.37,ESE,112,11.6,11.6,55,0.00,,,0.00,,2013-04-07 22:47:00,
2013-04-07 18:52:00,74.6,75.7,19.37,East,90,6.7,11.4,55,0.00,,,0.00,,2013-04-07 22:52:00,
2013-04-07 18:57:00,75.2,75.6,19.37,East,90,3.1,6.5,56,0.00,,,0.00,,2013-04-07 22:57:00,
2013-04-07 19:02:00,75.7,75.6,19.37,ENE,67,4.5,11.0,55,0.00,,,0.00,,2013-04-07 23:02:00,
2013-04-07 19:07:00,75.8,75.5,19.37,East,90,9.6,10.7,54,0.00,,,0.00,,2013-04-07 23:07:00,
2013-04-07 19:12:00,75.7,75.6,19.37,NE,45,4.3,8.7,53,0.00,,,0.00,,2013-04-07 23:12:00,
2013-04-07 19:17:00,75.3,75.4,19.37,ESE,112,8.3,10.1,53,0.00,,,0.00,,2013-04-07 23:17:00,
2013-04-07 19:22:00,74.3,75.5,19.38,ESE,112,5.6,13.9,53,0.00,,,0.00,,2013-04-07 23:22:00,
2013-04-07 19:27:00,74.0,75.5,19.38,ENE,67,5.1,5.1,55,0.00,,,0.00,,2013-04-07 23:27:00,
2013-04-07 19:32:00,73.6,75.4,19.39,East,90,9.6,14.8,56,0.00,,,0.00,,2013-04-07 23:32:00,
2013-04-07 19:37:00,73.2,75.1,19.39,East,90,6.9,8.3,56,0.00,,,0.00,,2013-04-07 23:37:00,
2013-04-07 19:42:00,73.0,74.9,19.40,ENE,67,4.9,6.5,57,0.00,,,0.00,,2013-04-07 23:42:00,
2013-04-07 19:47:00,72.7,75.0,19.40,East,90,4.9,9.6,57,0.00,,,0.00,,2013-04-07 23:47:00,
2013-04-07 19:52:00,72.5,74.9,19.40,ENE,67,7.8,14.3,58,0.00,,,0.00,,2013-04-07 23:52:00,
2013-04-07 19:57:00,72.4,75.1,19.40,ESE,112,6.0,10.5,59,0.00,,,0.00,,2013-04-07 23:57:00,
2013-04-07 20:02:00,72.3,75.1,19.41,East,90,3.4,5.6,59,0.00,,,0.00,,2013-04-08 00:02:00,
2013-04-07 20:08:00,72.2,75.0,19.42,ESE,112,2.0,7.4,59,0.00,,,0.00,,2013-04-08 00:08:00,
2013-04-07 20:13:00,72.2,74.9,19.42,East,90,3.1,5.6,60,0.00,,,0.00,,2013-04-08 00:13:00,
2013-04-07 20:18:00,71.9,74.9,19.42,ENE,67,4.3,6.9,60,0.00,,,0.00,,2013-04-08 00:18:00,
2013-04-07 20:23:00,71.8,74.9,19.42,East,90,5.1,7.8,61,0.00,,,0.00,,2013-04-08 00:23:00,
2013-04-07 20:28:00,71.8,74.8,19.43,East,90,1.6,5.4,61,0.00,,,0.00,,2013-04-08 00:28:00,
2013-04-07 20:33:00,71.7,74.8,19.43,East,90,6.9,8.7,61,0.00,,,0.00,,2013-04-08 00:33:00,
2013-04-07 20:38:00,71.6,74.4,19.43,East,90,4.9,6.7,61,0.00,,,0.00,,2013-04-08 00:38:00,
2013-04-07 20:43:00,71.5,74.6,19.44,ESE,112,4.5,6.0,62,0.00,,,0.00,,2013-04-08 00:43:00,
2013-04-07 20:48:00,71.4,74.6,19.44,ESE,112,2.2,5.6,62,0.00,,,0.00,,2013-04-08 00:48:00,
2013-04-07 20:53:00,71.4,74.6,19.44,East,90,0.7,2.5,63,0.00,,,0.00,,2013-04-08 00:53:00,
2013-04-07 20:58:00,71.2,74.6,19.44,ENE,67,2.2,4.3,63,0.00,,,0.00,,2013-04-08 00:58:00,
2013-04-07 21:03:00,71.3,74.6,19.45,East,90,3.1,4.3,63,0.00,,,0.00,,2013-04-08 01:03:00,
2013-04-07 21:08:00,71.2,74.5,19.45,East,90,3.6,4.3,63,0.00,,,0.00,,2013-04-08 01:08:00,
2013-04-07 21:13:00,71.1,74.6,19.45,East,90,1.3,3.1,63,0.00,,,0.00,,2013-04-08 01:13:00,
2013-04-07 21:18:00,71.1,74.6,19.45,ENE,67,2.9,2.9,63,0.00,,,0.00,,2013-04-08 01:18:00,
2013-04-07 21:23:00,71.0,74.5,19.45,ENE,67,2.9,3.4,63,0.00,,,0.00,,2013-04-08 01:23:00,
2013-04-07 21:28:00,70.9,74.4,19.45,ESE,112,1.6,3.6,63,0.00,,,0.00,,2013-04-08 01:28:00,
2013-04-07 21:33:00,70.8,74.4,19.46,East,90,2.9,3.4,64,0.00,,,0.00,,2013-04-08 01:33:00,
2013-04-07 21:38:00,70.8,74.4,19.46,East,90,1.3,3.8,64,0.00,,,0.00,,2013-04-08 01:38:00,
2013-04-07 21:43:00,70.7,74.4,19.46,ESE,112,0.0,0.0,64,0.00,,,0.00,,2013-04-08 01:43:00,
2013-04-07 21:48:00,70.7,74.5,19.46,ESE,112,1.1,3.1,65,0.00,,,0.00,,2013-04-08 01:48:00,
2013-04-07 21:53:00,70.6,74.4,19.46,East,90,0.0,0.0,65,0.00,,,0.00,,2013-04-08 01:53:00,
2013-04-07 21:58:00,70.6,74.4,19.47,East,90,0.0,0.7,65,0.00,,,0.00,,2013-04-08 01:58:00,
2013-04-07 22:03:00,70.5,74.4,19.47,East,90,0.0,0.0,65,0.00,,,0.00,,2013-04-08 02:03:00,
2013-04-07 22:08:00,70.5,74.4,19.47,East,90,0.0,0.0,65,0.00,,,0.00,,2013-04-08 02:08:00,
2013-04-07 22:13:00,70.4,74.3,19.47,ENE,67,0.0,0.0,66,0.00,,,0.00,,2013-04-08 02:13:00,
2013-04-07 22:18:00,70.3,74.3,19.47,ENE,67,0.0,0.0,66,0.00,,,0.00,,2013-04-08 02:18:00,
2013-04-07 22:23:00,70.3,74.3,19.47,East,90,0.0,0.0,66,0.00,,,0.00,,2013-04-08 02:23:00,
2013-04-07 22:28:00,70.2,74.3,19.47,East,90,0.0,0.0,66,0.00,,,0.00,,2013-04-08 02:28:00,
2013-04-07 22:33:00,70.1,74.3,19.47,East,90,0.0,0.0,66,0.00,,,0.00,,2013-04-08 02:33:00,
2013-04-07 22:38:00,70.1,74.2,19.48,East,90,0.0,0.0,67,0.00,,,0.00,,2013-04-08 02:38:00,
2013-04-07 22:43:00,70.0,74.2,19.48,East,90,0.0,0.0,67,0.00,,,0.00,,2013-04-08 02:43:00,
2013-04-07 22:49:00,69.9,74.3,19.48,East,90,0.0,0.0,67,0.00,,,0.00,,2013-04-08 02:49:00,
2013-04-07 22:54:00,69.8,74.3,19.48,East,90,0.0,0.0,67,0.00,,,0.00,,2013-04-08 02:54:00,
2013-04-07 22:59:00,69.8,74.2,19.48,East,90,0.0,0.0,68,0.00,,,0.00,,2013-04-08 02:59:00,
2013-04-07 23:05:00,69.6,74.3,19.49,ENE,67,2.2,2.2,68,0.00,,,0.00,,2013-04-08 03:05:00,
2013-04-07 23:10:00,69.5,74.2,19.49,ENE,67,0.7,0.9,68,0.00,,,0.00,,2013-04-08 03:10:00,
2013-04-07 23:15:00,69.4,74.2,19.49,ENE,67,0.0,0.0,68,0.00,,,0.00,,2013-04-08 03:15:00,
2013-04-07 23:20:00,69.4,74.2,19.49,ENE,67,0.0,0.0,68,0.00,,,0.00,,2013-04-08 03:20:00,
2013-04-07 23:25:00,69.4,74.2,19.49,ENE,67,0.0,0.0,69,0.00,,,0.00,,2013-04-08 03:25:00,
2013-04-07 23:30:00,69.4,74.2,19.50,ENE,67,0.0,0.0,69,0.00,,,0.00,,2013-04-08 03:30:00,
2013-04-07 23:35:00,69.3,74.2,19.50,ENE,67,0.0,0.0,69,0.00,,,0.00,,2013-04-08 03:35:00,
2013-04-07 23:40:00,69.2,74.2,19.50,ENE,67,0.0,0.0,70,0.00,,,0.00,,2013-04-08 03:40:00,
2013-04-07 23:45:00,69.1,74.2,19.50,ENE,67,0.0,0.0,71,0.00,,,0.00,,2013-04-08 03:45:00,
2013-04-07 23:50:00,68.9,74.2,19.50,ENE,67,0.0,0.0,72,0.00,,,0.00,,2013-04-08 03:50:00,
2013-04-07 23:55:00,68.8,74.2,19.50,ENE,67,0.0,0.0,72,0.00,,,0.00,,2013-04-08 03:55:00,